Weather History for Maxwell AFB, AL

Change the Weather History Date:

Saturday, November 9, 2013

  Actual Average Record
Temperature  
Mean Temperature 55 °F -  
Max Temperature 66 °F 68 °F 84 °F (2005)
Min Temperature 44 °F 47 °F 34 °F (2007)
Degree Days  
Heating Degree Days 10    
Growing Degree Days 5 (Base 50)    
Moisture  
Dew Point 44 °F    
Average Humidity 66    
Maximum Humidity 87    
Minimum Humidity 38    
Precipitation  
Precipitation 0.00 in - - ()
Sea Level Pressure  
Sea Level Pressure 30.27 in    
Wind  
Wind Speed 4 mph (NNE)    
Max Wind Speed 7 mph    
Max Gust Speed -    
Visibility 10 miles    
Events      
Averages and records for this station are not official NWS values.
T = Trace of Precipitation, MM = Missing Value Source: NWS Daily Summary

Daily Weather History Graph

Daily Weather History Graph

Search for Another Location

Airport:

Trip Planner

Search our weather history database for the weather conditions in past years. The results will help you decide how hot, cold, wet, or windy it might be!

Date:

Astronomy

Nov. 09, 2013 Rise Set
Actual Time 6:09 AM CST 4:48 PM CST
Civil Twilight 5:43 AM CST 5:14 PM CST
Nautical Twilight 5:14 AM CST 5:43 PM CST
Astronomical Twilight 4:45 AM CST 6:12 PM CST
Moon 11:49 AM CST (11/9) 11:13 PM CST (11/9)
Length of Visible Light 11h 30m
Length of Day
10h 38m
Waxing Crescent, 44% of the Moon is Illuminated
Nov 9
Waxing Crescent
Nov 9
First Quarter
Nov 17
Full
Nov 25
Last Quarter
Dec 2
New

Hourly Weather History & Observations

Time (CST) Temp. Windchill Dew Point Humidity Pressure Visibility Wind Dir Wind Speed Gust Speed Precip Events Conditions
12:58 AM 47.5 °F - 38.3 °F 70% 30.26 in 10.0 mi NNE 2.3 mph - N/A   Clear
1:58 AM 44.4 °F - 40.8 °F 87% 30.25 in 10.0 mi North 2.3 mph - N/A   Clear
2:58 AM 45.3 °F 42.3 °F 39.4 °F 80% 30.26 in 10.0 mi NNE 5.8 mph - N/A   Partly Cloudy
3:58 AM 45.9 °F 42.9 °F 37.9 °F 74% 30.25 in 10.0 mi ENE 5.8 mph - N/A   Clear
4:58 AM 45.1 °F 41.4 °F 37.0 °F 73% 30.27 in 10.0 mi ENE 6.9 mph - N/A   Clear
5:58 AM 44.2 °F 42.7 °F 37.2 °F 76% 30.29 in 10.0 mi North 3.5 mph - N/A   Clear
6:58 AM 45.5 °F - 39.0 °F 78% 30.32 in 10.0 mi NE 2.3 mph - N/A   Clear
7:58 AM 49.8 °F - 39.0 °F 66% 30.33 in 10.0 mi NE 4.6 mph - N/A   Clear
8:58 AM 55.4 °F - 37.9 °F 52% 30.33 in 10.0 mi NE 6.9 mph - N/A   Clear
9:58 AM 60.6 °F - 35.1 °F 38% 30.32 in 10.0 mi East 6.9 mph - N/A   Clear
10:58 AM 64.6 °F - 39.9 °F 40% 30.32 in 10.0 mi South 4.6 mph - N/A   Partly Cloudy
11:58 AM 64.6 °F - 42.3 °F 44% 30.29 in 10.0 mi North 4.6 mph - N/A   Partly Cloudy
12:58 PM 64.8 °F - 44.8 °F 48% 30.25 in 10.0 mi North 3.5 mph - N/A   Clear
1:58 PM 66.9 °F - 46.6 °F 48% 30.23 in 10.0 mi Variable 4.6 mph - N/A   Clear
2:58 PM 66.2 °F - 46.6 °F 49% 30.23 in 10.0 mi North 5.8 mph - N/A   Mostly Cloudy
3:58 PM 64.6 °F - 48.2 °F 55% 30.23 in 10.0 mi North 3.5 mph - N/A   Overcast
4:58 PM 60.8 °F - 50.5 °F 69% 30.23 in 10.0 mi NNE 2.3 mph - N/A   Mostly Cloudy
5:58 PM 57.7 °F - 52.3 °F 82% 30.24 in 10.0 mi North 2.3 mph - N/A   Scattered Clouds
6:58 PM 57.6 °F - 51.6 °F 81% 30.25 in 10.0 mi Calm Calm - N/A   Partly Cloudy
7:58 PM 55.9 °F - 50.4 °F 82% 30.25 in 10.0 mi Calm Calm - N/A   Mostly Cloudy
8:58 PM 55.9 °F - 50.7 °F 83% 30.26 in 10.0 mi North 2.3 mph - N/A   Mostly Cloudy
9:58 PM 56.5 °F - 49.5 °F 77% 30.28 in 10.0 mi NNW 4.6 mph - N/A   Overcast
10:58 PM 56.8 °F - 46.4 °F 68% 30.26 in 10.0 mi ENE 4.6 mph - N/A   Mostly Cloudy
11:58 PM 57.2 °F - 47.1 °F 69% 30.23 in 10.0 mi NNE 4.6 mph - N/A   Mostly Cloudy